Location: Ahausen
(50.4985°N, 8.2722°E)
Time: 16:23:14
(UTC+00:00)

Cosmos 2263 Rocket - Pass Details

Date: 18 September 2020
Orbit: 822 x 849 km, 71.0° (Epoch: 21 October)

Event Time Altitude Azimuth Distance (km) Brightness Sun altitude
Rises 19:32:37 0° 233° (SW) 3,352 5.7 -19.1°
Reaches altitude 10° 19:35:11 10° 241° (WSW) 2,424 5.0 -19.4°
Maximum altitude 19:40:24 40° 310° (NW) 1,214 3.5 -20.1°
Drops below altitude 10° 19:45:39 10° 20° (NNE) 2,451 4.7 -20.9°
Sets 19:48:17 0° 28° (NNE) 3,393 5.4 -21.2°
